Tracking 29892 objects as of 21-Nov-2024
HD Live streaming from Space Station
objects crossing your sky now

ONEWEB-0171

Track ONEWEB-0171 now!
10-day predictions
ONEWEB-0171 is classified as:


NORAD ID: 48070
Int'l Code: 2021-025AE
Perigee: 1,215.7 km
Apogee: 1,218.1 km
Inclination: 87.9 °
Period: 109.6 minutes
Semi major axis: 7587 km
RCS: Unknown
Launch date: March 25, 2021
Source: United States (US)
Launch site: VOSTOCHNY COSMODROME (VOSTO)
Your satellite tracking list
Your tracking list is empty




NASA's NSSDC Master Catalog

Two Line Element Set (TLE):
1 48070U 21025AE  24325.78188468 -.00000093  00000-0 -29018-3 0  9992
2 48070  87.8927  74.3012 0001558  99.2284 260.9021 13.13469884178342
Source of the keplerian elements: AFSPC